timestamp,wind_dir_avg,wind_spd_avg,wind_spd_max_dir,wind_spd_gust,battery_voltage,lat,long
2022-07-20 00:04:00+00:00,169.0,9.03,172.0,10.57,12.41,47.59359,-54.27349
2022-07-20 00:14:00+00:00,176.0,9.16,175.0,10.32,12.33,47.59359,-54.27349
2022-07-20 00:24:00+00:00,182.0,6.77,183.0,7.65,12.33,47.59359,-54.27349
2022-07-20 00:34:00+00:00,178.0,7.29,177.0,8.07,12.33,47.59359,-54.27349
2022-07-20 00:44:00+00:00,182.0,7.66,208.0,9.67,12.33,47.59359,-54.27349
2022-07-20 00:54:00+00:00,168.0,9.19,171.0,10.51,12.33,47.59359,-54.27349
2022-07-20 01:04:00+00:00,169.0,9.3,152.0,10.23,12.33,47.59359,-54.27349
2022-07-20 01:14:00+00:00,169.0,9.1,154.0,10.37,12.33,47.59359,-54.27349
2022-07-20 01:24:00+00:00,181.0,8.53,181.0,9.58,12.33,47.59359,-54.27349
2022-07-20 01:34:00+00:00,171.0,8.38,158.0,9.39,12.33,47.59359,-54.27349
2022-07-20 01:44:00+00:00,156.0,8.06,145.0,9.5,12.33,47.59359,-54.27349
2022-07-20 01:54:00+00:00,134.0,6.73,134.0,7.74,12.33,47.59359,-54.27349
2022-07-20 02:04:00+00:00,219.0,6.88,227.0,8.33,12.33,47.59359,-54.27349
2022-07-20 02:14:01+00:00,224.0,8.02,227.0,9.26,12.41,47.59359,-54.27349
2022-07-20 02:24:01+00:00,215.0,6.68,216.0,7.35,12.41,47.59359,-54.27349
2022-07-20 02:34:01+00:00,205.0,4.35,214.0,7.36,12.41,47.59359,-54.27349
2022-07-20 02:44:01+00:00,228.0,8.08,233.0,9.64,12.41,47.59359,-54.27349
2022-07-20 02:54:01+00:00,232.0,9.06,242.0,13.41,12.41,47.59359,-54.27349
2022-07-20 03:04:01+00:00,228.0,8.01,224.0,9.36,12.41,47.59359,-54.27349
2022-07-20 03:14:01+00:00,226.0,8.26,227.0,10.73,12.41,47.59359,-54.27349
2022-07-20 03:24:01+00:00,230.0,7.99,222.0,9.81,12.41,47.59359,-54.27349
2022-07-20 03:34:01+00:00,235.0,6.82,242.0,8.62,12.41,47.59359,-54.27349
2022-07-20 03:44:01+00:00,230.0,8.81,226.0,10.75,12.41,47.59359,-54.27349
2022-07-20 03:54:01+00:00,224.0,9.84,222.0,11.24,12.41,47.59359,-54.27349
2022-07-20 04:04:01+00:00,220.0,8.83,216.0,10.01,12.41,47.59359,-54.27349
2022-07-20 04:14:01+00:00,224.0,8.74,224.0,9.87,12.41,47.59359,-54.27349
2022-07-20 04:24:01+00:00,220.0,8.98,219.0,10.64,12.41,47.59359,-54.27349
2022-07-20 04:34:01+00:00,218.0,9.91,218.0,10.76,12.41,47.59359,-54.27349
2022-07-20 04:44:01+00:00,216.0,10.36,219.0,12.26,12.41,47.59359,-54.27349
2022-07-20 04:54:01+00:00,216.0,10.7,218.0,13.13,12.41,47.59359,-54.27349
2022-07-20 05:04:01+00:00,216.0,10.22,217.0,11.39,12.41,47.59359,-54.27349
2022-07-20 05:14:01+00:00,213.0,10.37,211.0,12.06,12.33,47.59359,-54.27349
2022-07-20 05:24:01+00:00,213.0,10.45,217.0,12.28,12.33,47.59359,-54.27349
2022-07-20 05:34:01+00:00,211.0,9.21,211.0,10.71,12.33,47.59359,-54.27349
2022-07-20 05:44:01+00:00,213.0,10.3,210.0,12.22,12.33,47.59359,-54.27349
2022-07-20 05:54:01+00:00,214.0,9.7,214.0,11.12,12.33,47.59359,-54.27349
2022-07-20 06:04:01+00:00,215.0,9.8,216.0,11.01,12.33,47.59359,-54.27349
2022-07-20 06:14:01+00:00,211.0,8.6,216.0,10.01,12.25,47.59359,-54.27349
2022-07-20 06:24:01+00:00,212.0,10.94,213.0,13.3,12.25,47.59359,-54.27349
2022-07-20 06:34:01+00:00,213.0,10.4,211.0,11.48,12.25,47.59359,-54.27349
2022-07-20 06:44:01+00:00,218.0,9.44,225.0,10.47,12.25,47.59359,-54.27349
2022-07-20 06:54:01+00:00,222.0,8.09,220.0,9.0,12.25,47.59359,-54.27349
2022-07-20 07:04:01+00:00,220.0,8.01,219.0,9.09,12.25,47.59359,-54.27349
2022-07-20 07:14:00+00:00,217.0,9.09,226.0,10.5,12.25,47.59359,-54.27349
2022-07-20 07:24:00+00:00,214.0,9.62,215.0,10.64,12.25,47.59359,-54.27349
2022-07-20 07:34:00+00:00,211.0,10.34,208.0,12.29,12.25,47.59359,-54.27349
2022-07-20 07:44:00+00:00,211.0,9.56,213.0,11.44,12.25,47.59359,-54.27349
2022-07-20 07:54:00+00:00,213.0,9.72,213.0,11.35,12.25,47.59359,-54.27349
2022-07-20 08:04:00+00:00,212.0,10.45,211.0,12.59,12.25,47.59359,-54.27349
2022-07-20 08:14:01+00:00,211.0,10.68,206.0,12.25,12.33,47.59359,-54.27349
2022-07-20 08:24:01+00:00,213.0,10.95,216.0,12.5,12.33,47.59359,-54.27349
2022-07-20 08:34:01+00:00,212.0,12.13,213.0,13.85,12.33,47.59359,-54.27349
2022-07-20 08:44:01+00:00,215.0,10.23,214.0,11.86,12.33,47.59359,-54.27349
2022-07-20 08:54:01+00:00,214.0,11.22,214.0,12.21,12.33,47.59359,-54.27349
2022-07-20 09:04:01+00:00,215.0,10.67,217.0,12.77,12.33,47.59359,-54.27349
2022-07-20 09:14:00+00:00,214.0,10.92,212.0,12.8,12.33,47.59359,-54.27349
2022-07-20 09:24:00+00:00,214.0,10.87,215.0,11.94,12.33,47.59359,-54.27349
2022-07-20 09:34:00+00:00,217.0,8.87,217.0,9.69,12.33,47.59359,-54.27349
2022-07-20 09:44:00+00:00,225.0,9.46,225.0,10.85,12.33,47.59359,-54.27349
2022-07-20 09:54:00+00:00,229.0,9.57,230.0,11.07,12.33,47.59359,-54.27349
2022-07-20 10:04:00+00:00,231.0,9.41,235.0,12.22,12.33,47.59359,-54.27349
2022-07-20 10:14:01+00:00,254.0,11.7,261.0,14.99,12.73,47.59359,-54.27349
2022-07-20 10:24:01+00:00,255.0,10.04,262.0,13.85,12.73,47.59359,-54.27349
2022-07-20 10:34:01+00:00,243.0,8.01,240.0,8.91,12.73,47.59359,-54.27349
2022-07-20 10:44:01+00:00,240.0,8.68,241.0,9.61,12.73,47.59359,-54.27349
2022-07-20 10:54:01+00:00,237.0,8.78,240.0,9.89,12.73,47.59359,-54.27349
2022-07-20 11:04:01+00:00,226.0,9.21,226.0,10.59,12.73,47.59359,-54.27349
2022-07-20 11:14:00+00:00,210.0,11.12,209.0,13.07,13.29,47.59359,-54.27349
2022-07-20 11:24:00+00:00,208.0,10.46,206.0,11.87,13.29,47.59359,-54.27349
2022-07-20 11:34:00+00:00,207.0,11.25,210.0,12.69,13.29,47.59359,-54.27349
2022-07-20 11:44:00+00:00,212.0,10.96,212.0,12.32,13.29,47.59359,-54.27349
2022-07-20 11:54:00+00:00,210.0,10.6,212.0,11.68,13.29,47.59359,-54.27349
2022-07-20 12:04:00+00:00,213.0,10.03,219.0,11.55,13.29,47.59359,-54.27349
2022-07-20 12:14:01+00:00,211.0,10.62,212.0,11.71,13.6,47.59359,-54.27349
2022-07-20 12:24:01+00:00,213.0,10.54,214.0,12.05,13.6,47.59359,-54.27349
2022-07-20 12:34:01+00:00,213.0,11.96,210.0,12.89,13.6,47.59359,-54.27349
2022-07-20 12:44:01+00:00,216.0,10.44,214.0,12.26,13.6,47.59359,-54.27349
2022-07-20 12:54:01+00:00,213.0,10.18,213.0,11.51,13.6,47.59359,-54.27349
2022-07-20 13:04:01+00:00,211.0,9.82,210.0,10.59,13.6,47.59359,-54.27349
2022-07-20 13:14:00+00:00,211.0,11.8,209.0,13.01,13.53,47.59359,-54.27349
2022-07-20 13:24:00+00:00,210.0,11.39,207.0,12.87,13.53,47.59359,-54.27349
2022-07-20 13:34:00+00:00,208.0,12.1,211.0,13.42,13.53,47.59359,-54.27349
2022-07-20 13:44:00+00:00,209.0,12.33,206.0,14.65,13.53,47.59359,-54.27349
2022-07-20 13:54:00+00:00,209.0,12.02,203.0,13.7,13.53,47.59359,-54.27349
2022-07-20 14:04:00+00:00,211.0,12.67,210.0,14.59,13.53,47.59359,-54.27349
2022-07-20 14:14:01+00:00,211.0,13.07,210.0,14.51,13.53,47.59359,-54.27349
2022-07-20 14:24:01+00:00,211.0,11.6,218.0,15.02,13.53,47.59359,-54.27349
2022-07-20 14:34:01+00:00,211.0,11.97,212.0,13.26,13.53,47.59359,-54.27349
2022-07-20 14:44:01+00:00,212.0,11.75,211.0,13.69,13.53,47.59359,-54.27349
2022-07-20 14:54:01+00:00,212.0,11.77,212.0,13.69,13.53,47.59359,-54.27349
2022-07-20 15:04:01+00:00,212.0,12.23,210.0,13.76,13.53,47.59359,-54.27349
2022-07-20 15:14:00+00:00,211.0,13.37,212.0,14.89,13.68,47.59359,-54.27349
2022-07-20 15:24:00+00:00,212.0,12.95,209.0,14.66,13.68,47.59359,-54.27349
2022-07-20 15:34:00+00:00,212.0,13.23,213.0,14.97,13.68,47.59359,-54.27349
2022-07-20 15:44:00+00:00,211.0,13.06,211.0,15.06,13.68,47.59359,-54.27349
2022-07-20 15:54:00+00:00,212.0,12.24,214.0,13.91,13.68,47.59359,-54.27349
2022-07-20 16:04:00+00:00,210.0,12.46,211.0,14.35,13.68,47.59359,-54.27349
2022-07-20 16:14:00+00:00,211.0,13.51,209.0,14.81,13.76,47.59359,-54.27349
2022-07-20 16:24:00+00:00,212.0,12.91,208.0,15.48,13.76,47.59359,-54.27349
2022-07-20 16:34:00+00:00,210.0,13.14,208.0,14.91,13.76,47.59359,-54.27349
2022-07-20 16:44:00+00:00,211.0,13.33,210.0,14.98,13.76,47.59359,-54.27349
2022-07-20 16:54:00+00:00,210.0,13.49,212.0,15.62,13.76,47.59359,-54.27349
2022-07-20 17:04:00+00:00,209.0,12.75,209.0,15.34,13.76,47.59359,-54.27349
2022-07-20 17:14:00+00:00,209.0,13.53,210.0,15.87,13.84,47.59359,-54.27349
2022-07-20 17:24:00+00:00,208.0,13.35,207.0,14.69,13.84,47.59359,-54.27349
2022-07-20 17:34:00+00:00,209.0,12.77,210.0,14.26,13.84,47.59359,-54.27349
2022-07-20 17:44:00+00:00,208.0,10.62,199.0,13.88,13.84,47.59359,-54.27349
2022-07-20 17:54:00+00:00,209.0,11.36,206.0,13.22,13.84,47.59359,-54.27349
2022-07-20 18:04:00+00:00,211.0,11.36,212.0,13.17,13.84,47.59359,-54.27349
2022-07-20 18:14:01+00:00,210.0,11.11,208.0,12.6,13.68,47.59359,-54.27349
2022-07-20 18:24:01+00:00,209.0,13.45,210.0,15.05,13.68,47.59359,-54.27349
2022-07-20 18:34:01+00:00,209.0,13.11,210.0,14.85,13.68,47.59359,-54.27349
2022-07-20 18:44:01+00:00,212.0,13.23,209.0,14.36,13.68,47.59359,-54.27349
2022-07-20 18:54:01+00:00,212.0,12.35,209.0,13.63,13.68,47.59359,-54.27349
2022-07-20 19:04:01+00:00,209.0,12.75,206.0,14.09,13.68,47.59359,-54.27349
2022-07-20 19:14:01+00:00,211.0,12.7,209.0,14.59,13.76,47.59359,-54.27349
2022-07-20 19:24:01+00:00,214.0,11.79,212.0,13.76,13.76,47.59359,-54.27349
2022-07-20 19:34:01+00:00,211.0,12.37,210.0,14.16,13.76,47.59359,-54.27349
2022-07-20 19:44:01+00:00,215.0,11.48,214.0,12.96,13.76,47.59359,-54.27349
2022-07-20 19:54:01+00:00,223.0,10.91,232.0,13.03,13.76,47.59359,-54.27349
2022-07-20 20:04:01+00:00,214.0,9.21,212.0,10.36,13.76,47.59359,-54.27349
2022-07-20 20:14:00+00:00,210.0,11.24,204.0,13.29,13.68,47.59359,-54.27349
2022-07-20 20:24:00+00:00,213.0,11.39,215.0,12.84,13.68,47.59359,-54.27349
2022-07-20 20:34:00+00:00,215.0,10.6,215.0,12.78,13.68,47.59359,-54.27349
2022-07-20 20:44:00+00:00,229.0,11.75,236.0,16.51,13.68,47.59359,-54.27349
2022-07-20 20:54:00+00:00,236.0,14.75,237.0,16.66,13.68,47.59359,-54.27349
2022-07-20 21:04:00+00:00,214.0,11.53,215.0,12.72,13.68,47.59359,-54.27349
2022-07-20 21:14:00+00:00,231.0,11.63,236.0,16.01,12.97,47.59359,-54.27349
2022-07-20 21:24:00+00:00,229.0,12.91,236.0,16.7,12.97,47.59359,-54.27349
2022-07-20 21:34:00+00:00,228.0,11.84,228.0,14.59,12.97,47.59359,-54.27349
2022-07-20 21:44:00+00:00,224.0,11.3,219.0,13.36,12.97,47.59359,-54.27349
2022-07-20 21:54:00+00:00,213.0,11.06,209.0,12.67,12.97,47.59359,-54.27349
2022-07-20 22:04:00+00:00,212.0,12.58,208.0,14.11,12.97,47.59359,-54.27349
2022-07-20 22:14:01+00:00,212.0,12.22,211.0,14.2,12.73,47.59359,-54.27349
2022-07-20 22:24:01+00:00,212.0,11.93,206.0,13.99,12.73,47.59359,-54.27349
2022-07-20 22:34:01+00:00,216.0,11.38,216.0,12.52,12.73,47.59359,-54.27349
2022-07-20 22:44:01+00:00,212.0,12.11,211.0,13.53,12.73,47.59359,-54.27349
2022-07-20 22:54:01+00:00,215.0,11.51,217.0,13.36,12.73,47.59359,-54.27349
2022-07-20 23:04:01+00:00,217.0,11.35,228.0,13.78,12.73,47.59359,-54.27349
2022-07-20 23:14:00+00:00,212.0,12.41,211.0,14.67,12.57,47.59359,-54.27349
2022-07-20 23:24:00+00:00,215.0,12.47,214.0,14.29,12.57,47.59359,-54.27349
2022-07-20 23:34:00+00:00,216.0,10.98,211.0,12.89,12.57,47.59359,-54.27349
2022-07-20 23:44:00+00:00,227.0,12.07,232.0,15.1,12.57,47.59359,-54.27349
2022-07-20 23:54:00+00:00,225.0,12.12,220.0,14.77,12.57,47.59359,-54.27349
